Location: *
(39.6167°S, 171.5333°W)
Time: 22:31:29
(UTC+00:00)

USA 229 DEB - Pass Details

Date: 13 May 2021
Orbit: 956 x 1256 km, 63.4° (Epoch: 14 June)

Event Time Altitude Azimuth Distance (km) Brightness Sun altitude
Exits shadow 16:51:20 - 209° (SSW) 2,961 5.7 -17.6°
Reaches altitude 10° 16:51:31 10° 209° (SSW) 2,892 5.6 -17.5°
Maximum altitude 16:58:15 64° 127° (SE) 1,110 3.9 -16.3°
Drops below altitude 10° 17:04:32 10° 46° (NE) 2,713 6.7 -15.1°
Sets 17:07:04 0° 42° (NE) 3,639 7.4 -14.6°
